Lee's Summit, MO

5:56 AM CDT on July 26, 2016 (GMT -0500)
Lee's Summit Municipal

Weather History for KLXT - September, 2012

Change the Weather History Date:

Thursday, September 20, 2012

  Actual Average (KMKC) Record (KMKC)
Temperature  
Mean Temperature 65 °F -  
Max Temperature 77 °F 75 °F 90 °F (2010)
Min Temperature 55 °F 55 °F 46 °F (1999)
Growing Degree Days 15 (Base 50)    
Moisture  
Dew Point 42 °F    
Average Humidity 42    
Maximum Humidity 65    
Minimum Humidity 23    
Precipitation  
Precipitation 0.00 in - - ()
Sea Level Pressure  
Sea Level Pressure 30.01 in    
Wind  
Wind Speed 4 mph (NNE)    
Max Wind Speed 13 mph    
Max Gust Speed -    
Visibility 9 miles    
Events      
Averages and records for this station are not official NWS values.
T = Trace of Precipitation, MM = Missing Value Source: NWS Daily Summary

Daily Weather History Graph

Daily Weather History Graph

Search for Another Location

Airport or City:

Trip Planner

Search our weather history database for the weather conditions in past years. The results will help you decide how hot, cold, wet, or windy it might be!

Date:

Astronomy

Sep. 20, 2012 Rise Set
Actual Time 7:03 AM CDT 7:16 PM CDT
Civil Twilight 6:37 AM CDT 7:43 PM CDT
Nautical Twilight 6:05 AM CDT 8:14 PM CDT
Astronomical Twilight 5:34 AM CDT 8:46 PM CDT
Moon 12:19 PM CDT (9/20) 10:22 PM CDT (9/20)
Length of Visible Light 13h 06m
Length of Day
12h 13m
Waxing Crescent, 27% of the Moon is Illuminated
Sep 20
Waxing Crescent
Sep 22
First Quarter
Sep 29
Full
Oct 8
Last Quarter
Oct 15
New

Hourly Weather History & Observations

Time (CDT) Temp. Dew Point Humidity Pressure Visibility Wind Dir Wind Speed Gust Speed Precip Events Conditions
12:53 AM 64.9 °F 53.1 °F 65% 29.96 in 10.0 mi Calm Calm - N/A   Overcast
1:53 AM 68.0 °F 46.0 °F 45% 29.97 in 10.0 mi NE 6.9 mph - N/A   Overcast
2:53 AM 62.1 °F 46.9 °F 58% 29.97 in 10.0 mi North 4.6 mph - N/A   Clear
3:53 AM 60.1 °F 45.0 °F 57% 29.97 in 10.0 mi North 4.6 mph - N/A   Clear
5:53 AM 57.9 °F 42.1 °F 56% 29.99 in 10.0 mi Calm Calm - N/A   Clear
6:53 AM 55.0 °F 42.1 °F 62% 30.01 in 10.0 mi Calm Calm - N/A   Clear
7:53 AM 55.0 °F 42.1 °F 62% 30.02 in 10.0 mi Calm Calm - N/A   Clear
8:53 AM 61.0 °F 44.1 °F 54% 30.02 in 10.0 mi North 4.6 mph - N/A   Clear
9:53 AM 66.0 °F 45.0 °F 47% 30.04 in - North - - N/A   Clear
10:11 AM 66.2 °F 46.4 °F 49% 30.05 in 0.5 mi North - - N/A   Haze
10:22 AM 68.0 °F 44.6 °F 43% 30.05 in 2.5 mi North - - N/A   Haze
10:29 AM 69.8 °F 44.6 °F 40% 30.06 in 10.0 mi North - - N/A   Clear
10:53 AM 71.1 °F 45.0 °F 39% 30.05 in 10.0 mi Variable 3.5 mph - N/A   Clear
11:53 AM 73.0 °F 37.9 °F 28% 30.05 in 10.0 mi North 4.6 mph - N/A   Clear
12:53 PM 73.9 °F 36.0 °F 25% 30.04 in 10.0 mi NNW 8.1 mph - N/A   Clear
1:53 PM 75.9 °F 36.0 °F 23% 30.04 in 10.0 mi NNW 10.4 mph - N/A   Clear
2:53 PM 75.0 °F 35.1 °F 23% 30.03 in 10.0 mi North 12.7 mph - N/A   Clear
3:53 PM 73.9 °F 37.0 °F 26% 30.01 in 10.0 mi North 6.9 mph - N/A   Clear
4:53 PM 73.9 °F 39.0 °F 28% 29.99 in 10.0 mi North 6.9 mph - N/A   Clear
5:53 PM 72.0 °F 42.1 °F 34% 29.99 in 10.0 mi Calm Calm - N/A   Clear
6:53 PM 69.1 °F 39.0 °F 33% 29.99 in 10.0 mi Calm Calm - N/A   Clear
7:53 PM 64.0 °F 41.0 °F 43% 30.00 in 10.0 mi South 3.5 mph - N/A   Clear
8:53 PM 66.9 °F 39.0 °F 36% 30.00 in 10.0 mi SSE 4.6 mph - N/A   Clear
9:53 PM 64.0 °F 39.9 °F 41% 30.00 in 10.0 mi South 4.6 mph - N/A   Clear
10:53 PM 66.0 °F 37.9 °F 36% 30.00 in 10.0 mi SSE 4.6 mph - N/A   Clear
11:53 PM 64.0 °F 39.0 °F 40% 29.98 in 10.0 mi SE 4.6 mph - N/A   Clear